Content
SEND FEEDBACK

Daily
Averages
Monthly
Summary
United Kingdom

LONDON, ENGLAND


Home > Europe > United Kingdom > England
Elevation: 203 feet     Latitude: 51 09N     Longitude: 000 11W

WEATHER
 
SELECT A DAY
Number of Records: 294,488;   Date Range: 7/1/96 - 9/16/14
 
SHARE

PRINT THIS DATA

[ ← Previous Day ]
WEATHER ALMANAC - JULY 11, 2013
[ Next Day → ]
[ °C ]   °F
Weather ElementAverageHighLow
Temperature60.1 °F71.6 °F (4:20 pm)53.6 °F (12:50 am)
Dewpoint47.5 °F51.8 °F (5:50 pm)44.6 °F (2:50 am)
Humidity64.7 %88 % (10:50 pm)43 % (4:20 pm)
Barometer30.27 in30.30 in (12:50 am)30.21 in (5:50 pm)
Wind Speed10.3 mph13.8 mph (3:50 am)
Weather ElementAverage
Visibility6.2 mi
Wind DirectionENE (53.2 °)

Weather ElementTotal
Precipitation---
Heating Degree Days2.4 (Base 65)
Growing Degree Days12.6 (Base 50)
Averaged from 47 records on July 11, 2013
WEATHER CONDITIONS BREAKOUT
WIND DIRECTION BREAKOUT
WEATHER BY HOUR - JULY 11, 2013
[ °C ]   °F
Local TimeTemperatureDewpointHumidityBarometerVisibilityWind DirectionWind SpeedGust SpeedPrecipitationEventsConditions
12:50 AM53.6 °F46.4 °F77 %30.30 in6.2 miNE (40°)10.4 mphMostly Cloudy
1:20 AM53.6 °F46.4 °F77 %30.30 in6.2 miNNE (30°)9.2 mphPartly Cloudy
1:50 AM53.6 °F46.4 °F77 %30.30 in6.2 miNE (40°)10.4 mphMostly Cloudy
2:20 AM53.6 °F46.4 °F77 %30.30 in6.2 miNE (50°)10.4 mphMostly Cloudy
2:50 AM53.6 °F44.6 °F72 %30.30 in6.2 miNE (50°)11.5 mphMostly Cloudy
3:20 AM53.6 °F44.6 °F72 %30.27 in6.2 miNE (40°)10.4 mphMostly Cloudy
3:50 AM53.6 °F44.6 °F72 %30.27 in6.2 miNE (50°)13.8 mphMostly Cloudy
4:20 AM53.6 °F44.6 °F72 %30.27 in6.2 miNNE (30°)12.7 mphMostly Cloudy
4:50 AM53.6 °F44.6 °F72 %30.27 in6.2 miNE (50°)11.5 mphMostly Cloudy
5:20 AM53.6 °F44.6 °F72 %30.27 in6.2 miNE (40°)9.2 mphMostly Cloudy
5:50 AM53.6 °F44.6 °F72 %30.27 in6.2 miNE (40°)12.7 mphMostly Cloudy
6:20 AM53.6 °F44.6 °F72 %30.27 in6.2 miNE (50°)12.7 mphMostly Cloudy
6:50 AM53.6 °F44.6 °F72 %30.27 in6.2 miNNE (30°)11.5 mphMostly Cloudy
7:20 AM53.6 °F44.6 °F72 %30.27 in6.2 miNE (40°)13.8 mphMostly Cloudy
7:50 AM53.6 °F44.6 °F72 %30.27 in6.2 miNE (40°)11.5 mphMostly Cloudy
8:20 AM55.4 °F44.6 °F67 %30.30 in6.2 miNE (50°)11.5 mphMostly Cloudy
8:50 AM55.4 °F44.6 °F67 %30.30 in6.2 miNNE (20°)11.5 mphMostly Cloudy
9:20 AM55.4 °F44.6 °F67 %30.30 in6.2 miENE (60°)10.4 mphMostly Cloudy
9:50 AM59.0 °F46.4 °F63 %30.30 in6.2 miENE (60°)10.4 mphMostly Cloudy
10:20 AM57.2 °F46.4 °F67 %30.30 in6.2 miENE (70°)9.2 mphPartly Cloudy
10:50 AM60.8 °F46.4 °F59 %30.30 in6.2 miNE (40°)11.5 mphPartly Cloudy
11:20 AM62.6 °F46.4 °F55 %30.30 in6.2 miENE (60°)11.5 mphPartly Cloudy
11:50 AM62.6 °F46.4 °F55 %30.27 inENE (70°)9.2 mphClear
12:20 PM64.4 °F48.2 °F56 %30.27 inENE (60°)11.5 mphClear
12:50 PM66.2 °F48.2 °F52 %30.27 inNE (40°)9.2 mphClear
1:20 PM66.2 °F46.4 °F49 %30.27 inNE (50°)10.4 mphClear
1:50 PM68.0 °F48.2 °F49 %30.27 inENE (60°)9.2 mphClear
2:20 PM68.0 °F48.2 °F49 %30.27 inNE (50°)8.1 mphClear
2:50 PM69.8 °F48.2 °F46 %30.24 inNE (50°)10.4 mphClear
3:20 PM69.8 °F48.2 °F46 %30.24 inNE (50°)8.1 mphClear
3:50 PM69.8 °F48.2 °F46 %30.24 inENE (60°)10.4 mphClear
4:20 PM71.6 °F48.2 °F43 %30.24 inNE (50°)9.2 mphClear
4:50 PM71.6 °F48.2 °F43 %30.24 inENE (60°)10.4 mphClear
5:20 PM71.6 °F48.2 °F43 %30.24 inNE (40°)10.4 mphClear
5:50 PM69.8 °F51.8 °F53 %30.21 inEast (80°)10.4 mphClear
6:20 PM69.8 °F51.8 °F53 %30.21 inEast (80°)10.4 mphClear
6:50 PM68.0 °F51.8 °F56 %30.21 inENE (70°)11.5 mphClear
7:20 PM66.2 °F51.8 °F60 %30.24 inEast (80°)10.4 mphClear
7:50 PM64.4 °F51.8 °F64 %30.24 inENE (60°)10.4 mphClear
8:20 PM62.6 °F51.8 °F68 %30.24 inENE (70°)9.2 mphClear
8:50 PM60.8 °F50.0 °F68 %30.24 inEast (80°)9.2 mphClear
9:20 PM59.0 °F50.0 °F72 %30.24 inENE (70°)10.4 mphClear
9:50 PM57.2 °F50.0 °F77 %30.27 inENE (70°)10.4 mphClear
10:20 PM55.4 °F50.0 °F82 %30.27 inENE (60°)8.1 mphClear
10:50 PM53.6 °F50.0 °F88 %30.27 inENE (60°)6.9 mphClear
11:20 PM53.6 °F50.0 °F88 %30.27 inENE (60°)6.9 mphClear
11:50 PM53.6 °F50.0 °F88 %30.27 inNE (40°)6.9 mphClear
Hourly data recorded from EGKK, located miles away from London, England







STORIES FROM OUR PARTNERS